owner,sensor,date,latitude,longitude,vertical_datum,direction_of_sea_water_velocity,sea_water_speed,upward_sea_water_velocity,qcFlag 
ADCP,ioos:station:wmo:42390:1,2017-10-01T01:32:00Z,26.1290,-94.8980,62.6,143.0,7.7,1.2,'1111122,1111122,1111122' 
ADCP,ioos:station:wmo:42390:1,2017-10-01T02:22:00Z,26.1290,-94.8980,62.6,154.0,11.3,2.6,'1111122,1111122,1111122' 
ADCP,ioos:station:wmo:42390:1,2017-10-01T03:22:00Z,26.1290,-94.8980,62.6,137.0,15.8,4.1,'1111122,1111122,1111122' 
ADCP,ioos:station:wmo:42390:1,2017-10-01T04:22:00Z,26.1290,-94.8980,62.6,134.0,16.1,5.9,'1111122,1111122,1111122' 
ADCP,ioos:station:wmo:42390:1,2017-10-01T05:22:00Z,26.1290,-94.8980,62.6,135.0,11.4,0.4,'1111122,1111122,1111122' 
ADCP,ioos:station:wmo:42390:1,2017-10-01T06:32:00Z,26.1290,-94.8980,62.6,115.0,7.5,-2.7,'1111122,1111122,1111122' 
ADCP,ioos:station:wmo:42390:1,2017-10-01T07:22:00Z,26.1290,-94.8980,62.6,160.0,16.1,10.6,'1111122,1111122,1111122' 
ADCP,ioos:station:wmo:42390:1,2017-10-01T08:32:00Z,26.1290,-94.8980,62.6,146.0,16.1,9.1,'1111122,1111122,1111122' 
ADCP,ioos:station:wmo:42390:1,2017-10-01T09:22:00Z,26.1290,-94.8980,62.6,157.0,18.0,8.0,'1111122,1111122,1111122' 
ADCP,ioos:station:wmo:42390:1,2017-10-01T10:32:00Z,26.1290,-94.8980,62.6,159.0,12.7,6.7,'1111122,1111122,1111122' 
ADCP,ioos:station:wmo:42390:1,2017-10-01T11:22:00Z,26.1290,-94.8980,62.6,144.0,9.4,5.7,'1111122,1111122,1111122' 
ADCP,ioos:station:wmo:42390:1,2017-10-01T12:32:00Z,26.1290,-94.8980,62.6,147.0,8.3,0.1,'1111122,1111122,1111122' 
ADCP,ioos:station:wmo:42390:1,2017-10-01T13:32:00Z,26.1290,-94.8980,62.6,145.0,13.3,4.6,'1111122,1111122,1111122' 
ADCP,ioos:station:wmo:42390:1,2017-10-01T14:32:00Z,26.1290,-94.8980,62.6,194.0,12.2,-3.5,'1111122,1111122,1111122' 
ADCP,ioos:station:wmo:42390:1,2017-10-01T15:22:00Z,26.1290,-94.8980,62.6,228.0,13.8,-9.8,'1111122,1111122,1111122' 
ADCP,ioos:station:wmo:42390:1,2017-10-01T16:32:00Z,26.1290,-94.8980,62.6,177.0,11.1,1.3,'1111122,1111122,1111122' 
ADCP,ioos:station:wmo:42390:1,2017-10-01T17:22:00Z,26.1290,-94.8980,62.6,209.0,13.9,-5.3,'1111122,1111122,1111122' 
ADCP,ioos:station:wmo:42390:1,2017-10-01T18:22:00Z,26.1290,-94.8980,62.6,238.0,16.2,-10.2,'1111122,1111122,1111122' 
ADCP,ioos:station:wmo:42390:1,2017-10-01T19:22:00Z,26.1290,-94.8980,62.6,224.0,18.6,-3.7,'1111122,1111122,1111122' 
ADCP,ioos:station:wmo:42390:1,2017-10-01T20:22:00Z,26.1290,-94.8980,62.6,177.0,17.7,7.4,'1111122,1111122,1111122' 
ADCP,ioos:station:wmo:42390:1,2017-10-01T21:22:00Z,26.1290,-94.8980,62.6,166.0,11.2,5.6,'1111122,1111122,1111122' 
ADCP,ioos:station:wmo:42390:1,2017-10-01T22:32:00Z,26.1290,-94.8980,62.6,157.0,14.2,3.9,'1111122,1111122,1111122' 
ADCP,ioos:station:wmo:42390:1,2017-10-01T23:22:00Z,26.1290,-94.8980,62.6,134.0,15.8,7.6,'1111122,1111122,1111122' 
ADCP,ioos:station:wmo:42390:1,2017-10-02T00:22:00Z,26.1290,-94.8980,62.6,345.0,12.1,-15.2,'1111122,1111122,1111122' 
ADCP,ioos:station:wmo:42390:1,2017-10-02T01:22:00Z,26.1290,-94.8980,62.6,330.0,16.8,-18.2,'1111122,1111122,1111122' 
ADCP,ioos:station:wmo:42390:1,2017-10-02T02:22:00Z,26.1290,-94.8980,62.6,334.0,27.3,-25.3,'1111122,1111122,1111122' 
ADCP,ioos:station:wmo:42390:1,2017-10-02T04:32:00Z,26.1290,-94.8980,62.6,358.0,20.2,-20.3,'1111122,1111122,1111122' 
ADCP,ioos:station:wmo:42390:1,2017-10-02T05:22:00Z,26.1290,-94.8980,62.6,7.0,19.3,-18.0,'1111122,1111122,1111122' 
ADCP,ioos:station:wmo:42390:1,2017-10-02T06:22:00Z,26.1290,-94.8980,62.6,16.0,13.0,-11.1,'1111122,1111122,1111122' 
ADCP,ioos:station:wmo:42390:1,2017-10-02T07:22:00Z,26.1290,-94.8980,62.6,31.0,13.1,-8.0,'1111122,1111122,1111122' 
ADCP,ioos:station:wmo:42390:1,2017-10-02T08:22:00Z,26.1290,-94.8980,62.6,13.0,10.6,-12.5,'1111122,1111122,1111122' 
ADCP,ioos:station:wmo:42390:1,2017-10-02T09:22:00Z,26.1290,-94.8980,62.6,26.0,12.3,-11.4,'1111122,1111122,1111122' 
ADCP,ioos:station:wmo:42390:1,2017-10-02T10:22:00Z,26.1290,-94.8980,62.6,9.0,17.1,-17.0,'1111122,1111122,1111122' 
ADCP,ioos:station:wmo:42390:1,2017-10-02T12:22:00Z,26.1290,-94.8980,62.6,129.0,5.1,-5.5,'1111122,1111122,1111122' 
ADCP,ioos:station:wmo:42390:1,2017-10-02T13:22:00Z,26.1290,-94.8980,62.6,110.0,4.0,-7.3,'1111122,1111122,1111122' 
ADCP,ioos:station:wmo:42390:1,2017-10-02T14:22:00Z,26.1290,-94.8980,62.6,129.0,7.5,-1.5,'1111122,1111122,1111122' 
ADCP,ioos:station:wmo:42390:1,2017-10-02T16:22:00Z,26.1290,-94.8980,62.6,127.0,14.1,5.9,'1111122,1111122,1111122' 
ADCP,ioos:station:wmo:42390:1,2017-10-02T17:22:00Z,26.1290,-94.8980,62.6,145.0,10.2,0.6,'1111122,1111122,1111122' 
ADCP,ioos:station:wmo:42390:1,2017-10-02T19:22:00Z,26.1290,-94.8980,62.6,142.0,18.2,6.5,'1111122,1111122,1111122' 
ADCP,ioos:station:wmo:42390:1,2017-10-02T20:22:00Z,26.1290,-94.8980,62.6,161.0,12.7,4.2,'1111122,1111122,1111122' 
ADCP,ioos:station:wmo:42390:1,2017-10-02T21:32:00Z,26.1290,-94.8980,62.6,155.0,31.4,19.5,'1111122,1111122,1111122' 
ADCP,ioos:station:wmo:42390:1,2017-10-02T22:22:00Z,26.1290,-94.8980,62.6,154.0,32.7,19.5,'1111122,1111122,1111122' 
ADCP,ioos:station:wmo:42390:1,2017-10-02T23:32:00Z,26.1290,-94.8980,62.6,157.0,42.0,28.9,'1111122,1111122,1111122' 
ADCP,ioos:station:wmo:42390:1,2017-10-03T00:22:00Z,26.1290,-94.8980,62.6,157.0,37.4,20.7,'1111122,1111122,1111122' 
ADCP,ioos:station:wmo:42390:1,2017-10-03T01:22:00Z,26.1290,-94.8980,62.6,154.0,40.8,26.3,'1111122,1111122,1111122' 
ADCP,ioos:station:wmo:42390:1,2017-10-03T02:22:00Z,26.1290,-94.8980,62.6,152.0,38.2,22.5,'1111122,1111122,1111122' 
ADCP,ioos:station:wmo:42390:1,2017-10-03T03:22:00Z,26.1290,-94.8980,62.6,150.0,42.2,25.9,'1111122,1111122,1111122' 
ADCP,ioos:station:wmo:42390:1,2017-10-03T04:22:00Z,26.1290,-94.8980,62.6,152.0,29.8,17.1,'1111122,1111122,1111122' 
ADCP,ioos:station:wmo:42390:1,2017-10-03T05:22:00Z,26.1290,-94.8980,62.6,154.0,35.2,22.8,'1111122,1111122,1111122' 
ADCP,ioos:station:wmo:42390:1,2017-10-03T06:22:00Z,26.1290,-94.8980,62.6,152.0,29.5,16.7,'1111122,1111122,1111122' 
ADCP,ioos:station:wmo:42390:1,2017-10-03T07:22:00Z,26.1290,-94.8980,62.6,165.0,39.4,26.9,'1111122,1111122,1111122' 
ADCP,ioos:station:wmo:42390:1,2017-10-03T08:22:00Z,26.1290,-94.8980,62.6,166.0,33.8,15.8,'1111122,1111122,1111122' 
ADCP,ioos:station:wmo:42390:1,2017-10-03T16:22:00Z,26.1290,-94.8980,62.6,162.0,12.7,2.8,'1111122,1111122,1111122' 
ADCP,ioos:station:wmo:42390:1,2017-10-03T17:22:00Z,26.1290,-94.8980,62.6,163.0,12.8,3.2,'1111122,1111122,1111122' 
ADCP,ioos:station:wmo:42390:1,2017-10-03T18:22:00Z,26.1290,-94.8980,62.6,175.0,15.9,2.1,'1111122,1111122,1111122' 
ADCP,ioos:station:wmo:42390:1,2017-10-03T19:22:00Z,26.1290,-94.8980,62.6,154.0,22.9,9.1,'1111122,1111122,1111122' 
ADCP,ioos:station:wmo:42390:1,2017-10-03T20:22:00Z,26.1290,-94.8980,62.6,154.0,26.5,12.2,'1111122,1111122,1111122' 
ADCP,ioos:station:wmo:42390:1,2017-10-03T21:22:00Z,26.1290,-94.8980,62.6,166.0,24.0,8.0,'1111122,1111122,1111122' 
ADCP,ioos:station:wmo:42390:1,2017-10-03T22:27:00Z,26.1290,-94.8980,62.6,170.0,26.6,10.2,'1111122,1111122,1111122' 
ADCP,ioos:station:wmo:42390:1,2017-10-03T23:27:00Z,26.1290,-94.8980,62.6,160.0,39.6,24.4,'1111122,1111122,1111122' 
ADCP,ioos:station:wmo:42390:1,2017-10-04T00:27:00Z,26.1290,-94.8980,62.6,168.0,34.5,17.3,'1111122,1111122,1111122' 
ADCP,ioos:station:wmo:42390:1,2017-10-04T01:27:00Z,26.1290,-94.8980,62.6,173.0,37.6,14.7,'1111122,1111122,1111122' 
ADCP,ioos:station:wmo:42390:1,2017-10-04T02:27:00Z,26.1290,-94.8980,62.6,159.0,38.7,20.9,'1111122,1111122,1111122' 
ADCP,ioos:station:wmo:42390:1,2017-10-04T03:27:00Z,26.1290,-94.8980,62.6,156.0,46.1,32.5,'1111122,1111122,1111122' 
ADCP,ioos:station:wmo:42390:1,2017-10-04T04:27:00Z,26.1290,-94.8980,62.6,154.0,41.0,29.8,'1111122,1111122,1111122' 
ADCP,ioos:station:wmo:42390:1,2017-10-04T05:27:00Z,26.1290,-94.8980,62.6,170.0,25.0,12.1,'1111122,1111122,1111122' 
ADCP,ioos:station:wmo:42390:1,2017-10-04T06:27:00Z,26.1290,-94.8980,62.6,187.0,23.7,9.4,'1111122,1111122,1111122' 
ADCP,ioos:station:wmo:42390:1,2017-10-04T07:27:00Z,26.1290,-94.8980,62.6,172.0,32.0,15.9,'1111122,1111122,1111122' 
ADCP,ioos:station:wmo:42390:1,2017-10-04T08:27:00Z,26.1290,-94.8980,62.6,167.0,32.4,17.5,'1111122,1111122,1111122' 
ADCP,ioos:station:wmo:42390:1,2017-10-04T09:27:00Z,26.1290,-94.8980,62.6,160.0,38.5,25.7,'1111122,1111122,1111122' 
ADCP,ioos:station:wmo:42390:1,2017-10-04T12:27:00Z,26.1290,-94.8980,62.6,163.0,42.4,20.0,'1111122,1111122,1111122' 
ADCP,ioos:station:wmo:42390:1,2017-10-04T13:27:00Z,26.1290,-94.8980,62.6,159.0,35.9,14.5,'1111122,1111122,1111122' 
ADCP,ioos:station:wmo:42390:1,2017-10-04T15:27:00Z,26.1290,-94.8980,62.6,162.0,25.2,8.4,'1111122,1111122,1111122' 
ADCP,ioos:station:wmo:42390:1,2017-10-04T16:27:00Z,26.1290,-94.8980,62.6,181.0,15.7,1.7,'1111122,1111122,1111122' 
ADCP,ioos:station:wmo:42390:1,2017-10-04T17:27:00Z,26.1290,-94.8980,62.6,250.0,10.6,-13.3,'1111122,1111122,1111122' 
ADCP,ioos:station:wmo:42390:1,2017-10-04T18:27:00Z,26.1290,-94.8980,62.6,197.0,16.7,-0.8,'1111122,1111122,1111122' 
ADCP,ioos:station:wmo:42390:1,2017-10-04T19:27:00Z,26.1290,-94.8980,62.6,183.0,17.0,2.5,'1111122,1111122,1111122' 
ADCP,ioos:station:wmo:42390:1,2017-10-04T20:27:00Z,26.1290,-94.8980,62.6,163.0,23.0,10.8,'1111122,1111122,1111122' 
ADCP,ioos:station:wmo:42390:1,2017-10-04T21:27:00Z,26.1290,-94.8980,62.6,156.0,37.7,23.8,'1111122,1111122,1111122' 
ADCP,ioos:station:wmo:42390:1,2017-10-04T22:27:00Z,26.1290,-94.8980,62.6,161.0,27.0,17.2,'1111122,1111122,1111122' 
ADCP,ioos:station:wmo:42390:1,2017-10-04T23:27:00Z,26.1290,-94.8980,62.6,158.0,46.1,29.8,'1111122,1111122,1111122' 
ADCP,ioos:station:wmo:42390:1,2017-10-05T00:27:00Z,26.1290,-94.8980,62.6,152.0,39.5,27.2,'1111122,1111122,1111122' 
ADCP,ioos:station:wmo:42390:1,2017-10-05T01:27:00Z,26.1290,-94.8980,62.6,148.0,39.0,26.2,'1111122,1111122,1111122' 
ADCP,ioos:station:wmo:42390:1,2017-10-05T02:27:00Z,26.1290,-94.8980,62.6,155.0,41.7,29.0,'1111122,1111122,1111122' 
ADCP,ioos:station:wmo:42390:1,2017-10-05T03:27:00Z,26.1290,-94.8980,62.6,151.0,43.0,34.3,'1111122,1111122,1111122' 
ADCP,ioos:station:wmo:42390:1,2017-10-05T04:27:00Z,26.1290,-94.8980,62.6,153.0,44.0,27.9,'1111122,1111122,1111122' 
ADCP,ioos:station:wmo:42390:1,2017-10-05T05:27:00Z,26.1290,-94.8980,62.6,150.0,37.8,27.3,'1111122,1111122,1111122' 
ADCP,ioos:station:wmo:42390:1,2017-10-05T06:27:00Z,26.1290,-94.8980,62.6,145.0,28.1,17.8,'1111122,1111122,1111122' 
ADCP,ioos:station:wmo:42390:1,2017-10-05T07:27:00Z,26.1290,-94.8980,62.6,157.0,25.9,9.0,'1111122,1111122,1111122' 
ADCP,ioos:station:wmo:42390:1,2017-10-05T08:27:00Z,26.1290,-94.8980,62.6,150.0,28.4,13.3,'1111122,1111122,1111122' 
ADCP,ioos:station:wmo:42390:1,2017-10-05T09:27:00Z,26.1290,-94.8980,62.6,150.0,37.7,17.1,'1111122,1111122,1111122' 
ADCP,ioos:station:wmo:42390:1,2017-10-05T10:27:00Z,26.1290,-94.8980,62.6,147.0,24.2,5.4,'1111122,1111122,1111122' 
ADCP,ioos:station:wmo:42390:1,2017-10-05T11:37:00Z,26.1290,-94.8980,62.6,131.0,10.9,-7.2,'1111122,1111122,1111122' 
ADCP,ioos:station:wmo:42390:1,2017-10-05T14:37:00Z,26.1290,-94.8980,62.6,278.0,9.7,-23.5,'1111122,1111122,1111122' 
ADCP,ioos:station:wmo:42390:1,2017-10-05T15:27:00Z,26.1290,-94.8980,62.6,249.0,13.6,-21.1,'1111122,1111122,1111122' 
ADCP,ioos:station:wmo:42390:1,2017-10-05T16:37:00Z,26.1290,-94.8980,62.6,216.0,17.6,-11.6,'1111122,1111122,1111122' 
ADCP,ioos:station:wmo:42390:1,2017-10-05T17:27:00Z,26.1290,-94.8980,62.6,231.0,21.5,-12.9,'1111122,1111122,1111122' 
ADCP,ioos:station:wmo:42390:1,2017-10-05T18:27:00Z,26.1290,-94.8980,62.6,230.0,23.7,-8.9,'1111122,1111122,1111122' 
ADCP,ioos:station:wmo:42390:1,2017-10-05T19:37:00Z,26.1290,-94.8980,62.6,202.0,23.7,3.4,'1111122,1111122,1111122' 
ADCP,ioos:station:wmo:42390:1,2017-10-05T20:27:00Z,26.1290,-94.8980,62.6,164.0,22.3,14.9,'1111122,1111122,1111122' 
ADCP,ioos:station:wmo:42390:1,2017-10-05T22:27:00Z,26.1290,-94.8980,62.6,125.0,16.6,3.7,'1111122,1111122,1111122' 
ADCP,ioos:station:wmo:42390:1,2017-10-05T23:27:00Z,26.1290,-94.8980,62.6,142.0,21.1,9.4,'1111122,1111122,1111122' 
ADCP,ioos:station:wmo:42390:1,2017-10-06T02:27:00Z,26.1290,-94.8980,62.6,145.0,22.3,9.8,'1111122,1111122,1111122' 
ADCP,ioos:station:wmo:42390:1,2017-10-06T04:27:00Z,26.1290,-94.8980,62.6,139.0,32.7,13.1,'1111122,1111122,1111122' 
ADCP,ioos:station:wmo:42390:1,2017-10-06T05:27:00Z,26.1290,-94.8980,62.6,143.0,35.4,15.2,'1111122,1111122,1111122' 
ADCP,ioos:station:wmo:42390:1,2017-10-06T06:27:00Z,26.1290,-94.8980,62.6,154.0,24.6,2.6,'1111122,1111122,1111122' 
ADCP,ioos:station:wmo:42390:1,2017-10-06T07:27:00Z,26.1290,-94.8980,62.6,153.0,26.3,8.6,'1111122,1111122,1111122' 
ADCP,ioos:station:wmo:42390:1,2017-10-06T08:27:00Z,26.1290,-94.8980,62.6,162.0,21.2,1.9,'1111122,1111122,1111122' 
ADCP,ioos:station:wmo:42390:1,2017-10-06T09:37:00Z,26.1290,-94.8980,62.6,164.0,17.5,2.9,'1111122,1111122,1111122' 
ADCP,ioos:station:wmo:42390:1,2017-10-06T10:37:00Z,26.1290,-94.8980,62.6,159.0,17.8,5.0,'1111122,1111122,1111122' 
ADCP,ioos:station:wmo:42390:1,2017-10-06T11:27:00Z,26.1290,-94.8980,62.6,178.0,12.1,-4.2,'1111122,1111122,1111122' 
ADCP,ioos:station:wmo:42390:1,2017-10-06T12:27:00Z,26.1290,-94.8980,62.6,164.0,16.7,-2.0,'1111122,1111122,1111122' 
ADCP,ioos:station:wmo:42390:1,2017-10-06T13:27:00Z,26.1290,-94.8980,62.6,169.0,18.4,-2.7,'1111122,1111122,1111122' 
ADCP,ioos:station:wmo:42390:1,2017-10-06T14:27:00Z,26.1290,-94.8980,62.6,249.0,6.1,-16.7,'1111122,1111122,1111122' 
ADCP,ioos:station:wmo:42390:1,2017-10-06T15:27:00Z,26.1290,-94.8980,62.6,237.0,12.4,-14.4,'1111122,1111122,1111122' 
ADCP,ioos:station:wmo:42390:1,2017-10-06T16:27:00Z,26.1290,-94.8980,62.6,255.0,17.4,-19.7,'1111122,1111122,1111122' 
ADCP,ioos:station:wmo:42390:1,2017-10-06T17:27:00Z,26.1290,-94.8980,62.6,269.0,18.8,-21.0,'1111122,1111122,1111122' 
ADCP,ioos:station:wmo:42390:1,2017-10-06T18:27:00Z,26.1290,-94.8980,62.6,245.0,18.2,-15.8,'1111122,1111122,1111122' 
ADCP,ioos:station:wmo:42390:1,2017-10-06T20:27:00Z,26.1290,-94.8980,62.6,219.0,19.8,-7.4,'1111122,1111122,1111122' 
ADCP,ioos:station:wmo:42390:1,2017-10-06T21:27:00Z,26.1290,-94.8980,62.6,187.0,15.5,-3.5,'1111122,1111122,1111122' 
ADCP,ioos:station:wmo:42390:1,2017-10-06T22:27:00Z,26.1290,-94.8980,62.6,186.0,17.2,-0.1,'1111122,1111122,1111122' 
ADCP,ioos:station:wmo:42390:1,2017-10-07T00:27:00Z,26.1290,-94.8980,62.6,140.0,16.3,0.2,'1111122,1111122,1111122' 
ADCP,ioos:station:wmo:42390:1,2017-10-07T01:27:00Z,26.1290,-94.8980,62.6,157.0,30.6,17.4,'1111122,1111122,1111122' 
ADCP,ioos:station:wmo:42390:1,2017-10-07T02:27:00Z,26.1290,-94.8980,62.6,150.0,26.7,14.0,'1111122,1111122,1111122' 
ADCP,ioos:station:wmo:42390:1,2017-10-07T03:27:00Z,26.1290,-94.8980,62.6,153.0,38.6,25.0,'1111122,1111122,1111122' 
ADCP,ioos:station:wmo:42390:1,2017-10-07T04:27:00Z,26.1290,-94.8980,62.6,159.0,35.1,22.8,'1111122,1111122,1111122' 
ADCP,ioos:station:wmo:42390:1,2017-10-07T05:27:00Z,26.1290,-94.8980,62.6,157.0,29.7,17.2,'1111122,1111122,1111122' 
ADCP,ioos:station:wmo:42390:1,2017-10-07T06:27:00Z,26.1290,-94.8980,62.6,147.0,30.6,12.4,'1111122,1111122,1111122' 
ADCP,ioos:station:wmo:42390:1,2017-10-07T07:27:00Z,26.1290,-94.8980,62.6,170.0,22.0,-0.5,'1111122,1111122,1111122' 
ADCP,ioos:station:wmo:42390:1,2017-10-07T08:27:00Z,26.1290,-94.8980,62.6,185.0,19.0,-3.0,'1111122,1111122,1111122' 
ADCP,ioos:station:wmo:42390:1,2017-10-07T09:07:00Z,26.1290,-94.8980,62.6,178.0,18.1,-1.1,'1111122,1111122,1111122' 
ADCP,ioos:station:wmo:42390:1,2017-10-07T11:27:00Z,26.1290,-94.8980,62.6,220.0,5.4,-7.0,'1111122,1111122,1111122' 
ADCP,ioos:station:wmo:42390:1,2017-10-07T12:27:00Z,26.1290,-94.8980,62.6,225.0,11.5,-9.5,'1111122,1111122,1111122' 
ADCP,ioos:station:wmo:42390:1,2017-10-07T13:27:00Z,26.1290,-94.8980,62.6,237.0,17.3,-17.4,'1111122,1111122,1111122' 
ADCP,ioos:station:wmo:42390:1,2017-10-07T14:27:00Z,26.1290,-94.8980,62.6,231.0,25.9,-16.7,'1111122,1111122,1111122' 
ADCP,ioos:station:wmo:42390:1,2017-10-07T15:27:00Z,26.1290,-94.8980,62.6,236.0,25.2,-14.1,'1111122,1111122,1111122' 
ADCP,ioos:station:wmo:42390:1,2017-10-07T16:27:00Z,26.1290,-94.8980,62.6,247.0,29.6,-16.1,'1111122,1111122,1111122' 
ADCP,ioos:station:wmo:42390:1,2017-10-07T17:27:00Z,26.1290,-94.8980,62.6,240.0,32.3,-11.2,'1111122,1111122,1111122' 
ADCP,ioos:station:wmo:42390:1,2017-10-07T18:27:00Z,26.1290,-94.8980,62.6,228.0,32.4,-3.3,'1111122,1111122,1111122' 
ADCP,ioos:station:wmo:42390:1,2017-10-07T19:27:00Z,26.1290,-94.8980,62.6,230.0,18.9,-6.6,'1111122,1111122,1111122' 
ADCP,ioos:station:wmo:42390:1,2017-10-07T20:27:00Z,26.1290,-94.8980,62.6,233.0,32.9,-6.5,'1111122,1111122,1111122' 
ADCP,ioos:station:wmo:42390:1,2017-10-07T21:27:00Z,26.1290,-94.8980,62.6,230.0,29.3,-4.9,'1111122,1111122,1111122' 
ADCP,ioos:station:wmo:42390:1,2017-10-07T22:27:00Z,26.1290,-94.8980,62.6,212.0,21.6,-0.5,'1111122,1111122,1111122' 
ADCP,ioos:station:wmo:42390:1,2017-10-07T23:27:00Z,26.1290,-94.8980,62.6,200.0,22.6,5.9,'1111122,1111122,1111122' 
ADCP,ioos:station:wmo:42390:1,2017-10-08T00:27:00Z,26.1290,-94.8980,62.6,178.0,17.3,2.2,'1111122,1111122,1111122' 
ADCP,ioos:station:wmo:42390:1,2017-10-08T01:27:00Z,26.1290,-94.8980,62.6,175.0,28.6,13.7,'1111122,1111122,1111122' 
ADCP,ioos:station:wmo:42390:1,2017-10-08T02:27:00Z,26.1290,-94.8980,62.6,162.0,33.0,17.4,'1111122,1111122,1111122' 
ADCP,ioos:station:wmo:42390:1,2017-10-08T03:27:00Z,26.1290,-94.8980,62.6,168.0,28.9,16.5,'1111122,1111122,1111122' 
ADCP,ioos:station:wmo:42390:1,2017-10-08T04:27:00Z,26.1290,-94.8980,62.6,174.0,33.3,22.0,'1111122,1111122,1111122' 
ADCP,ioos:station:wmo:42390:1,2017-10-08T05:27:00Z,26.1290,-94.8980,62.6,167.0,30.6,16.4,'1111122,1111122,1111122' 
ADCP,ioos:station:wmo:42390:1,2017-10-08T06:27:00Z,26.1290,-94.8980,62.6,163.0,34.2,24.1,'1111122,1111122,1111122' 
ADCP,ioos:station:wmo:42390:1,2017-10-08T07:27:00Z,26.1290,-94.8980,62.6,165.0,22.2,11.1,'1111122,1111122,1111122' 
ADCP,ioos:station:wmo:42390:1,2017-10-08T08:27:00Z,26.1290,-94.8980,62.6,159.0,25.7,9.0,'1111122,1111122,1111122' 
ADCP,ioos:station:wmo:42390:1,2017-10-08T09:27:00Z,26.1290,-94.8980,62.6,176.0,18.2,3.9,'1111122,1111122,1111122' 
ADCP,ioos:station:wmo:42390:1,2017-10-08T10:27:00Z,26.1290,-94.8980,62.6,147.0,15.1,4.0,'1111122,1111122,1111122' 
ADCP,ioos:station:wmo:42390:1,2017-10-08T11:27:00Z,26.1290,-94.8980,62.6,227.0,6.0,-4.7,'1111122,1111122,1111122' 
ADCP,ioos:station:wmo:42390:1,2017-10-08T12:27:00Z,26.1290,-94.8980,62.6,157.0,4.3,-6.4,'1111122,1111122,1111122' 
ADCP,ioos:station:wmo:42390:1,2017-10-08T13:27:00Z,26.1290,-94.8980,62.6,146.0,12.6,-5.6,'1111122,1111122,1111122' 
ADCP,ioos:station:wmo:42390:1,2017-10-08T14:27:00Z,26.1290,-94.8980,62.6,160.0,10.0,-6.0,'1111122,1111122,1111122' 
ADCP,ioos:station:wmo:42390:1,2017-10-08T15:27:00Z,26.1290,-94.8980,62.6,187.0,10.0,-4.7,'1111122,1111122,1111122' 
ADCP,ioos:station:wmo:42390:1,2017-10-08T16:27:00Z,26.1290,-94.8980,62.6,260.0,9.3,-13.1,'1111122,1111122,1111122' 
ADCP,ioos:station:wmo:42390:1,2017-10-08T17:27:00Z,26.1290,-94.8980,62.6,279.0,12.4,-14.6,'1111122,1111122,1111122' 
ADCP,ioos:station:wmo:42390:1,2017-10-08T18:27:00Z,26.1290,-94.8980,62.6,251.0,13.6,-12.3,'1111122,1111122,1111122' 
ADCP,ioos:station:wmo:42390:1,2017-10-08T19:27:00Z,26.1290,-94.8980,62.6,230.0,19.2,-9.9,'1111122,1111122,1111122' 
ADCP,ioos:station:wmo:42390:1,2017-10-08T20:27:00Z,26.1290,-94.8980,62.6,239.0,17.0,-9.6,'1111122,1111122,1111122' 
ADCP,ioos:station:wmo:42390:1,2017-10-08T21:27:00Z,26.1290,-94.8980,62.6,266.0,14.9,-14.9,'1111122,1111122,1111122' 
ADCP,ioos:station:wmo:42390:1,2017-10-08T22:27:00Z,26.1290,-94.8980,62.6,274.0,17.3,-18.6,'1111122,1111122,1111122' 
ADCP,ioos:station:wmo:42390:1,2017-10-08T23:27:00Z,26.1290,-94.8980,62.6,287.0,14.5,-18.5,'1111122,1111122,1111122' 
ADCP,ioos:station:wmo:42390:1,2017-10-09T00:27:00Z,26.1290,-94.8980,62.6,248.0,6.2,-12.5,'1111122,1111122,1111122' 
ADCP,ioos:station:wmo:42390:1,2017-10-09T01:27:00Z,26.1290,-94.8980,62.6,164.0,16.0,2.5,'1111122,1111122,1111122' 
ADCP,ioos:station:wmo:42390:1,2017-10-09T02:27:00Z,26.1290,-94.8980,62.6,159.0,12.2,2.4,'1111122,1111122,1111122' 
ADCP,ioos:station:wmo:42390:1,2017-10-09T03:27:00Z,26.1290,-94.8980,62.6,170.0,26.9,15.4,'1111122,1111122,1111122' 
ADCP,ioos:station:wmo:42390:1,2017-10-09T04:27:00Z,26.1290,-94.8980,62.6,156.0,11.1,-1.0,'1111122,1111122,1111122' 
ADCP,ioos:station:wmo:42390:1,2017-10-09T05:27:00Z,26.1290,-94.8980,62.6,155.0,46.1,30.3,'1111122,1111122,1111122' 
ADCP,ioos:station:wmo:42390:1,2017-10-09T06:27:00Z,26.1290,-94.8980,62.6,160.0,36.2,24.4,'1111122,1111122,1111122' 
ADCP,ioos:station:wmo:42390:1,2017-10-09T07:27:00Z,26.1290,-94.8980,62.6,146.0,27.8,11.9,'1111122,1111122,1111122' 
ADCP,ioos:station:wmo:42390:1,2017-10-09T08:27:00Z,26.1290,-94.8980,62.6,154.0,32.2,21.2,'1111122,1111122,1111122' 
ADCP,ioos:station:wmo:42390:1,2017-10-09T09:27:00Z,26.1290,-94.8980,62.6,164.0,20.0,7.3,'1111122,1111122,1111122' 
ADCP,ioos:station:wmo:42390:1,2017-10-09T10:27:00Z,26.1290,-94.8980,62.6,182.0,10.3,0.8,'1111122,1111122,1111122' 
ADCP,ioos:station:wmo:42390:1,2017-10-09T11:27:00Z,26.1290,-94.8980,62.6,249.0,9.1,-5.7,'1111122,1111122,1111122' 
ADCP,ioos:station:wmo:42390:1,2017-10-09T12:27:00Z,26.1290,-94.8980,62.6,202.0,8.0,-3.0,'1111122,1111122,1111122' 
ADCP,ioos:station:wmo:42390:1,2017-10-09T13:27:00Z,26.1290,-94.8980,62.6,153.0,14.4,0.0,'1111122,1111122,1114422' 
ADCP,ioos:station:wmo:42390:1,2017-10-09T15:27:00Z,26.1290,-94.8980,62.6,145.0,25.3,10.6,'1111122,1111122,1111122' 
ADCP,ioos:station:wmo:42390:1,2017-10-09T16:27:00Z,26.1290,-94.8980,62.6,149.0,19.8,4.2,'1111122,1111122,1111122' 
ADCP,ioos:station:wmo:42390:1,2017-10-09T18:27:00Z,26.1290,-94.8980,62.6,165.0,20.7,9.7,'1111122,1111122,1111122' 
ADCP,ioos:station:wmo:42390:1,2017-10-09T19:27:00Z,26.1290,-94.8980,62.6,170.0,17.2,6.9,'1111122,1111122,1111122' 
ADCP,ioos:station:wmo:42390:1,2017-10-09T20:27:00Z,26.1290,-94.8980,62.6,165.0,19.2,8.3,'1111122,1111122,1111122' 
ADCP,ioos:station:wmo:42390:1,2017-10-09T21:07:00Z,26.1290,-94.8980,62.6,167.0,21.4,10.0,'1111122,1111122,1111122' 
ADCP,ioos:station:wmo:42390:1,2017-10-09T22:07:00Z,26.1290,-94.8980,62.6,151.0,12.6,2.5,'1111122,1111122,1111122' 
ADCP,ioos:station:wmo:42390:1,2017-10-09T23:07:00Z,26.1290,-94.8980,62.6,123.0,6.9,0.5,'1111122,1111122,1111122' 
ADCP,ioos:station:wmo:42390:1,2017-10-10T01:27:00Z,26.1290,-94.8980,62.6,36.0,10.7,-9.8,'1111122,1111122,1111122' 
ADCP,ioos:station:wmo:42390:1,2017-10-10T02:07:00Z,26.1290,-94.8980,62.6,25.0,18.9,-17.1,'1111122,1111122,1111122' 
ADCP,ioos:station:wmo:42390:1,2017-10-10T03:27:00Z,26.1290,-94.8980,62.6,15.0,12.1,-11.4,'1111122,1111122,1111122' 
ADCP,ioos:station:wmo:42390:1,2017-10-10T04:07:00Z,26.1290,-94.8980,62.6,32.0,12.0,-10.1,'1111122,1111122,1111122' 
ADCP,ioos:station:wmo:42390:1,2017-10-10T05:27:00Z,26.1290,-94.8980,62.6,32.0,6.5,-8.5,'1111122,1111122,1111122' 
ADCP,ioos:station:wmo:42390:1,2017-10-10T06:07:00Z,26.1290,-94.8980,62.6,177.0,3.9,-3.5,'1111122,1111122,1111122' 
ADCP,ioos:station:wmo:42390:1,2017-10-10T07:07:00Z,26.1290,-94.8980,62.6,16.0,5.0,-8.8,'1111122,1111122,1111122' 
ADCP,ioos:station:wmo:42390:1,2017-10-10T08:07:00Z,26.1290,-94.8980,62.6,133.0,9.2,1.3,'1111122,1111122,1111122' 
ADCP,ioos:station:wmo:42390:1,2017-10-10T09:07:00Z,26.1290,-94.8980,62.6,137.0,20.4,11.5,'1111122,1111122,1111122' 
ADCP,ioos:station:wmo:42390:1,2017-10-10T10:07:00Z,26.1290,-94.8980,62.6,159.0,26.0,19.0,'1111122,1111122,1111122' 
ADCP,ioos:station:wmo:42390:1,2017-10-10T11:07:00Z,26.1290,-94.8980,62.6,164.0,19.9,6.1,'1111122,1111122,1111122' 
ADCP,ioos:station:wmo:42390:1,2017-10-10T13:07:00Z,26.1290,-94.8980,62.6,159.0,30.5,14.5,'1111122,1111122,1111122' 
ADCP,ioos:station:wmo:42390:1,2017-10-10T14:07:00Z,26.1290,-94.8980,62.6,184.0,26.0,5.0,'1111122,1111122,1111122' 
ADCP,ioos:station:wmo:42390:1,2017-10-10T15:07:00Z,26.1290,-94.8980,62.6,213.0,26.1,-3.4,'1111122,1111122,1111122' 
ADCP,ioos:station:wmo:42390:1,2017-10-10T16:07:00Z,26.1290,-94.8980,62.6,213.0,24.4,-3.7,'1111122,1111122,1111122' 
ADCP,ioos:station:wmo:42390:1,2017-10-10T17:07:00Z,26.1290,-94.8980,62.6,207.0,25.5,-0.7,'1111122,1111122,1111122' 